User: anonymous   Login
Location: Unspecified
(0.0000°N, 0.0000°E)
Time: 10:11:15
(UTC+00:00)
Language:

TerraSAR-X - Orbit

View from above orbital plane
View from above orbital plane
View from above satellite
View from above satellite

Ground track
Ground track

The orbit data is extracted from the following two-line orbital elements,

1 31698U 07026A   24149.54492131  .00001954  00000-0  96216-4 0  9998
2 31698  97.4455 156.9762 0001981  90.8340 269.3122 15.19147800940073
Epoch (UTC): 28 May 2024 13:04:41
Eccentricity: 0.0001981
inclination: 97.4455°
perigee height: 507 km
apogee height: 510 km
right ascension of ascending node: 156.9762°
argument of perigee: 90.8340°
revolutions per day: 15.19147800
mean anomaly at epoch: 269.3122°
orbit number at epoch: 94007

The dashed part of the orbit path shows where the satellite is in the earth's shadow,  

DLR